SCP
0 0 0 0 0 0 0 0 0 0 0 0 0 0 0 0 0 0 0 0 0 0 0 0 0 0 0 0 0 0 0 0 0 0 0 0 0 0 0 0 0 0 0 0
0 0 0 0 0 0 0 0 0 0 0 0 0 0 0 0 0 0 0 0 0 0 0 0 0 0 0 0 0 0 0 0 0 0 0 0 0 0 0 0 0 0 0 0
0 0 0 0 0 0 0 0 0 0 0 0 0 0 0 0 0 0 0 0 0 0 0 0 0 0 0 0 0 0 0 0 0 0 0 0 0 0 0 0 0 0 0 0
0 0 0 0 0 0 0 0 0 0 0 0 0 0 0 0 0 0 0 0 0 0 0 0 0 0 0 0 0 0 0 0 0 0 0 0 0 0 0 0 0 0 0 0
0 0 0 0 0 0 0 0 0 0 0 0 0 0 0 0 0 0 0 0 0 0 0 0 0 0 0 0 0 0 0 0 0 0 0 0 0 0 0 0 0 0 0 0
0 0 0 0 0 0 0 0 0 0 0 0 0 0 0 0 0 0 0 0 0 0 0 0 0 0 0 0 0 0 0 0 0 0 0 0 0 0 0 0 0 0 0 0
0 0 0 0 0 0 0 0 0 0 0 0 0 0 0 0 0 0 0 0 0 0 0 0 0 0 0 0 0 0 0 0 0 0 0 0 0 0 0 0 0 0 0 0
0 0 0 0 0 0 0 0 0 0 0 0 0 0 0 0 0 0 0 0 0 0 0 0 0 0 0 0 0 0 0 0 0 0 0 0 0 0 0 0 0 0 0 0
0 0 0 0 0 0 0 0 0 0 0 0 0 0 0 0 0 0 0 0 0 0 0 0 0 0 0 0 0 0 0 0 0 0 0 0 0 0 0 0 0 0 0 0
0 0 0 0 0 0 0 0 0 0 0 0 0 0 0 0 0 0 0 0 0 0 0 0 0 0 0 0 0 0 0 0 0 0 0 0 0 0 0 0 0 0 0 0
0 0 0 0 0 0 0 0 0 0 0 0 0 0 0 0 0 0 0 0 0 0 0 0 0 0 0 0 0 0 0 0 0 0 0 0 0 0 0 0 0 0 0 0
0 0 0 0 0 0 0 0 0 0 0 0 0 0 0 0 0 0 0 0 0 0 0 0 0 0 0 0 0 0 0 0 0 0 0 0 0 0 0 0 0 0 0 0
0 0 0 0 0 0 0 0 0 0 0 0 0 0 0 0 0 0 0 0 0 0 0 0 0 0 0 0 0 0 0 0 0 0 0 0 0 0 0 0 0 0 0 0
0 0 0 0 0 0 0 0 0 0 0 0 0 0 0 0 0 0 0 0 0 0 0 0 0 0 0 0 0 0 0 0 0 0 0 0 0 0 0 0 0 0 0 0
0 0 0 0 0 0 0 0 0 0 0 0 0 0 0 0 0 0 0 0 0 0 0 0 0 0 0 0 0 0 0 0 0 0 0 0 0 0 0 0 0 0 0 0
0 0 0 0 0 0 0 0 0 0 0 0 0 0 0 0 0 0 0 0 0 0 0 0 0 0 0 0 0 0 0 0 0 0 0 0 0 0 0 0 0 0 0 0
0 0 0 0 0 0 0 0 0 0 0 0 0 0 0 0 0 0 0 0 0 0 0 0 0 0 0 0 0 0 0 0 0 0 0 0 0 0 0 0 0 0 0 0
0 0 0 0 0 0 0 0 0 0 0 0 0 0 0 0 0 0 0 0 0 0 0 0 0 0 0 0 0 0 0 0 0 0 0 0 0 0 0 0 0 0 0 0
0 0 0 0 0 0 0 0 0 0 0 0 0 0 0 0 0 0 0 0 0 0 0 0 0 0 0 0 0 0 0 0 0 0 0 0 0 0 0 0 0 0 0 0
0 0 0 0 0 0 0 0 0 0 0 0 0 0 0 0 0 0 0 0 0 0 0 0 0 0 0 0 0 0 0 0 0 0 0 0 0 0 0 0 0 0 0 0
0 0 0 0 0 0 0 0 0 0 0 0 0 0 0 0 0 0 0 0 0 0 0 0 0 0 0 0 0 0 0 0 0 0 0 0 0 0 0 0 0 0 0 0
0 0 0 0 0 0 0 0 0 0 0 0 0 0 0 0 0 0 0 0 0 0 0 0 0 0 0 0 0 0 0 0 0 0 0 0 0 0 0 0 0 0 0 0
0 0 0 0 0 0 0 0 0 0 0 0 0 0 0 0 0 0 0 0 0 0 0 0 0 0 0 0 0 0 0 0 0 0 0 0 0 0 0 0 0 0 0 0
0 0 0 0 0 0 0 0 0 0 0 0 0 0 0 0 0 0 0 0 0 0 0 0 0 0 0 0 0 0 0 0 0 0 0 0 0 0 0 0 0 0 0 0
0 0 0 0 0 0 0 0 0 0 0 0 0 0 0 0 0 0 0 0 0 0 0 0 0 0 0 0 0 0 0 0 0 0 0 0 0 0 0 0 0 0 0 0
0 0 0 0 0 0 0 0 0 0 0 0 0 0 0 0 0 0 0 0 0 0 0 0 0 0 0 0 0 0 0 0 0 0 0 0 0 0 0 0 0 0 0 0
Wind_Speed_500mb
25 8 15 18 18 21 14 6 14 9 11 5 15 24 25 37 40 35 39 39 43 41 27 17 23 20 36 37 36 36 37 39 38 34 20 23 25 18 19 25 33 35 33 31
7 16 15 11 12 11 9 14 11 9 11 5 17 28 33 36 31 43 42 44 43 35 17 15 12 24 25 20 19 22 25 30 29 28 25 21 16 17 21 23 27 29 27 29
13 6 30 16 6 7 13 14 12 8 3 13 19 22 23 18 39 31 18 22 11 11 9 7 15 13 11 10 11 12 12 14 14 11 25 19 18 21 23 24 19 20 24 25
15 8 9 15 16 15 15 16 14 10 5 6 10 10 9 7 13 14 25 15 19 12 17 15 8 7 8 8 8 8 6 5 4 3 11 11 15 19 19 19 18 22 27 22
8 14 15 14 18 14 4 9 11 12 11 9 5 7 11 9 11 14 25 29 22 22 13 9 5 3 3 3 3 4 4 5 6 6 10 16 19 21 20 19 16 15 14 11
5 3 4 11 3 14 12 9 7 2 2 4 19 13 8 10 8 2 30 34 24 16 12 5 2 2 2 2 3 3 2 2 5 6 9 13 12 10 9 8 7 8 9 9
6 7 6 3 9 6 10 11 3 1 0 10 4 13 11 10 7 6 18 36 25 15 8 3 7 8 5 4 5 4 3 2 3 5 6 6 8 7 6 3 1 5 8 11
13 8 15 11 10 10 14 11 6 8 5 3 4 12 9 2 12 13 32 40 24 14 10 12 14 10 8 8 8 6 4 2 1 4 6 7 6 5 6 7 9 12 15 18
13 8 8 9 6 10 11 13 6 5 4 5 9 11 17 14 11 13 27 28 20 16 13 18 13 13 13 12 12 11 10 7 6 4 4 4 4 4 6 9 13 17 21 22
5 8 4 3 5 16 2 3 5 2 4 9 9 12 13 9 19 13 19 27 21 20 18 18 15 16 16 16 17 16 15 12 9 7 6 4 1 3 8 12 15 18 22 24
7 5 3 10 14 19 7 4 7 7 7 5 4 7 6 19 14 6 17 15 18 22 21 19 21 19 19 20 22 22 20 17 15 13 10 6 5 7 11 14 18 20 20 20
15 4 9 11 7 16 20 16 17 7 8 9 4 16 13 9 17 24 17 8 14 17 18 23 29 26 27 29 31 29 26 22 21 18 14 11 10 6 11 16 19 19 18 15
20 10 5 9 3 5 9 13 20 16 10 21 10 4 7 30 15 9 3 7 18 25 29 34 34 34 34 38 38 35 32 30 27 22 18 14 12 14 14 16 18 19 14 10
37 7 7 9 9 6 9 14 20 22 13 20 37 31 31 19 9 10 16 22 30 34 38 43 44 47 44 47 44 41 40 34 29 26 21 15 13 14 15 15 12 11 10 7
14 9 8 13 5 5 8 10 17 26 22 26 26 39 23 20 24 50 58 53 34 47 50 56 59 54 53 55 50 49 45 38 34 30 24 19 15 12 13 12 8 7 6 4
0 3 10 4 7 8 13 16 15 20 22 33 37 54 18 40 43 38 44 47 60 54 62 71 67 63 64 62 56 53 47 41 38 34 28 20 13 15 18 9 6 5 1 2
14 9 6 7 8 6 17 18 30 30 26 24 40 55 30 31 36 45 53 62 67 58 57 67 79 73 71 68 65 54 51 44 39 31 25 18 13 12 11 7 4 3 1 6
7 11 6 7 6 7 9 19 17 20 19 25 34 34 34 42 58 73 65 64 68 74 72 64 73 73 72 71 64 60 50 43 38 32 24 15 11 9 10 6 4 1 3 8
0 7 4 7 11 21 28 5 9 11 42 25 32 41 46 57 55 60 47 58 65 58 59 51 62 73 74 68 62 54 46 40 34 27 22 19 13 12 9 5 2 5 6 9
10 7 5 3 8 18 14 17 40 18 43 27 48 44 52 55 21 26 27 35 42 44 36 43 61 72 69 59 52 46 42 38 32 27 22 14 16 14 10 4 2 5 6 10
7 9 27 24 21 14 15 21 16 12 41 14 33 33 39 9 27 32 35 35 33 29 31 46 56 56 49 45 45 45 41 36 31 26 20 22 18 12 7 3 2 3 8 12
17 17 11 11 13 34 24 20 28 34 63 64 68 74 53 56 48 45 46 40 32 29 35 42 43 41 39 40 42 40 37 32 28 23 25 20 15 10 4 2 2 7 13 15
7 14 10 19 14 15 18 20 33 43 53 57 60 56 59 50 51 49 49 43 35 36 39 42 41 40 42 42 40 37 34 30 29 29 26 20 13 8 5 1 5 10 13 15
8 21 15 14 33 47 61 74 52 55 66 76 79 83 71 62 56 52 49 44 41 38 37 37 38 41 42 42 38 33 31 30 31 26 21 16 11 7 5 4 7 11 14 15
17 9 12 17 34 49 70 74 61 65 62 64 67 69 70 59 52 51 50 47 44 39 37 38 41 45 43 42 39 36 35 33 27 23 18 14 11 8 5 6 9 10 12 16
29 26 13 23 48 34 56 47 35 39 47 53 58 60 58 52 48 50 48 46 42 37 38 44 46 44 43 41 37 36 33 31 25 20 16 14 12 9 6 6 6 9 13 15
Wind_Direction_500mb
192 202 189 192 219 252 344 220 234 184 114 20 266 274 273 266 269 266 261 259 264 266 271 229 243 261 268 264 261 263 265 265 265 267 267 279 273 262 264 235 246 250 254 256
167 230 215 207 221 235 257 288 250 128 160 167 265 271 272 260 248 245 250 257 258 257 228 219 240 271 278 277 277 275 275 274 273 257 227 208 209 222 227 232 247 257 260 261
197 22 202 211 145 178 246 241 271 279 282 247 270 273 254 242 250 239 259 252 225 171 130 212 259 265 279 302 301 300 295 295 291 259 215 207 216 226 237 245 246 257 264 260
230 210 193 151 197 185 222 214 232 302 313 243 27 293 315 217 205 177 213 168 133 159 178 194 210 269 294 300 307 323 331 342 317 176 123 176 200 218 227 241 246 255 260 268
208 176 166 185 200 177 213 130 181 209 246 334 220 235 268 189 238 205 159 137 134 136 160 184 211 272 336 313 314 354 7 32 80 128 170 185 192 208 217 223 229 244 268 287
118 41 175 203 143 173 124 134 121 129 40 274 209 193 251 174 191 297 127 139 154 161 170 181 145 257 290 289 292 301 311 41 91 113 138 158 167 175 188 202 232 264 292 317
131 176 107 308 124 52 186 177 138 191 256 228 147 197 244 304 136 148 174 147 161 171 160 189 237 255 273 260 267 284 306 12 79 110 124 136 139 131 114 100 20 330 321 323
168 181 176 180 210 179 190 205 164 233 196 4 70 236 259 359 5 76 116 151 163 162 204 235 235 257 263 268 284 291 284 261 169 115 104 94 81 63 42 9 349 338 331 327
168 162 140 175 205 155 173 220 299 21 76 67 231 265 290 208 222 128 138 150 162 189 223 222 225 241 253 254 254 252 246 235 215 191 141 110 85 49 10 350 340 331 327 322
224 113 338 70 25 299 222 348 76 353 172 243 252 250 246 276 194 168 173 164 170 202 219 228 236 240 250 251 247 244 242 235 225 212 200 199 229 355 342 334 330 330 329 327
188 117 166 130 208 188 181 227 222 170 184 204 308 256 28 36 72 176 184 152 186 215 219 233 241 254 258 252 248 247 245 239 233 228 226 238 278 314 322 326 326 323 320 319
201 200 158 193 339 225 220 202 214 172 206 228 222 248 304 101 98 76 84 150 195 225 238 251 255 266 260 255 249 245 241 238 236 236 240 249 259 274 310 315 312 308 305 303
187 193 132 152 348 302 208 214 230 250 281 240 229 242 227 79 107 128 141 226 237 241 244 248 252 261 256 253 246 241 240 236 236 239 243 254 277 298 305 307 304 299 297 297
168 164 189 174 130 125 195 216 215 227 240 261 247 264 271 291 216 279 255 253 232 256 256 253 252 254 250 250 248 242 238 235 235 235 238 252 276 290 297 298 291 286 280 278
169 180 229 267 174 230 248 240 225 234 251 255 277 272 274 290 292 298 295 297 268 249 247 255 250 246 246 248 245 239 236 233 232 232 234 243 256 277 288 282 280 272 268 264
208 172 180 251 302 307 261 249 261 273 273 273 275 268 278 279 286 289 280 274 273 277 258 265 250 245 244 245 242 236 233 230 231 234 237 240 252 261 271 277 276 265 282 334
172 124 91 247 193 319 289 196 229 241 246 257 262 269 272 278 278 268 275 281 283 285 277 262 258 246 241 239 238 232 231 229 232 234 232 229 242 265 262 250 249 246 4 8
194 145 124 192 71 257 238 180 198 215 232 237 261 276 270 265 271 273 274 274 275 279 279 272 255 238 233 233 230 229 225 226 226 224 225 228 236 243 231 213 243 317 24 352
331 134 167 157 200 275 274 187 232 201 265 241 256 266 276 281 288 281 287 286 285 280 279 273 245 232 228 227 229 223 220 219 218 219 224 222 220 222 211 206 285 336 1 348
218 212 170 137 191 233 317 176 221 217 263 210 251 265 271 277 276 282 279 294 298 300 282 250 228 225 222 223 226 218 212 209 211 221 217 194 202 198 196 189 288 324 348 356
160 198 220 226 242 258 216 145 171 191 259 278 275 280 292 256 267 283 289 291 286 275 237 216 212 215 217 221 215 208 205 207 207 199 179 189 183 175 186 196 304 321 344 352
168 170 204 207 238 261 190 188 196 237 261 270 275 280 275 275 274 277 278 277 267 244 224 216 216 216 216 212 205 202 202 197 188 174 178 173 174 177 181 169 269 338 352 351
231 192 188 186 211 250 209 201 232 250 261 270 278 276 281 279 272 272 270 265 257 244 235 229 225 218 205 198 195 193 186 177 172 177 172 173 167 159 174 249 334 335 334 345
265 214 223 245 263 270 278 276 270 278 282 281 282 284 281 276 277 269 259 253 247 239 234 226 214 201 193 190 185 185 180 172 174 169 168 169 167 172 208 281 321 334 341 343
224 174 226 256 262 269 270 269 274 276 275 277 277 277 277 275 267 262 256 247 238 231 220 206 193 190 188 180 182 177 173 171 171 173 172 174 181 205 243 300 317 321 330 343
223 228 216 240 247 233 256 263 269 283 284 279 278 279 274 266 260 252 244 237 232 224 204 188 184 185 185 175 176 173 170 171 178 178 179 189 204 220 254 283 303 324 333 338
Wind_Speed_850mb
25 8 15 18 18 21 14 6 14 9 11 5 15 24 25 37 40 35 39 39 43 41 27 17 23 20 36 37 36 36 37 39 38 34 20 23 25 18 19 25 33 35 33 31
7 16 15 11 12 11 9 14 11 9 11 5 17 28 33 36 31 43 42 44 43 35 17 15 12 24 25 20 19 22 25 30 29 28 25 21 16 17 21 23 27 29 27 29
13 6 30 16 6 7 13 14 12 8 3 13 19 22 23 18 39 31 18 22 11 11 9 7 15 13 11 10 11 12 12 14 14 11 25 19 18 21 23 24 19 20 24 25
15 8 9 15 16 15 15 16 14 10 5 6 10 10 9 7 13 14 25 15 19 12 17 15 8 7 8 8 8 8 6 5 4 3 11 11 15 19 19 19 18 22 27 22
8 14 15 14 18 14 4 9 11 12 11 9 5 7 11 9 11 14 25 29 22 22 13 9 5 3 3 3 3 4 4 5 6 6 10 16 19 21 20 19 16 15 14 11
5 3 4 11 3 14 12 9 7 2 2 4 19 13 8 10 8 2 30 34 24 16 12 5 2 2 2 2 3 3 2 2 5 6 9 13 12 10 9 8 7 8 9 9
6 7 6 3 9 6 10 11 3 1 0 10 4 13 11 10 7 6 18 36 25 15 8 3 7 8 5 4 5 4 3 2 3 5 6 6 8 7 6 3 1 5 8 11
13 8 15 11 10 10 14 11 6 8 5 3 4 12 9 2 12 13 32 40 24 14 10 12 14 10 8 8 8 6 4 2 1 4 6 7 6 5 6 7 9 12 15 18
13 8 8 9 6 10 11 13 6 5 4 5 9 11 17 14 11 13 27 28 20 16 13 18 13 13 13 12 12 11 10 7 6 4 4 4 4 4 6 9 13 17 21 22
5 8 4 3 5 16 2 3 5 2 4 9 9 12 13 9 19 13 19 27 21 20 18 18 15 16 16 16 17 16 15 12 9 7 6 4 1 3 8 12 15 18 22 24
7 5 3 10 14 19 7 4 7 7 7 5 4 7 6 19 14 6 17 15 18 22 21 19 21 19 19 20 22 22 20 17 15 13 10 6 5 7 11 14 18 20 20 20
15 4 9 11 7 16 20 16 17 7 8 9 4 16 13 9 17 24 17 8 14 17 18 23 29 26 27 29 31 29 26 22 21 18 14 11 10 6 11 16 19 19 18 15
20 10 5 9 3 5 9 13 20 16 10 21 10 4 7 30 15 9 3 7 18 25 29 34 34 34 34 38 38 35 32 30 27 22 18 14 12 14 14 16 18 19 14 10
37 7 7 9 9 6 9 14 20 22 13 20 37 31 31 19 9 10 16 22 30 34 38 43 44 47 44 47 44 41 40 34 29 26 21 15 13 14 15 15 12 11 10 7
14 9 8 13 5 5 8 10 17 26 22 26 26 39 23 20 24 50 58 53 34 47 50 56 59 54 53 55 50 49 45 38 34 30 24 19 15 12 13 12 8 7 6 4
0 3 10 4 7 8 13 16 15 20 22 33 37 54 18 40 43 38 44 47 60 54 62 71 67 63 64 62 56 53 47 41 38 34 28 20 13 15 18 9 6 5 1 2
14 9 6 7 8 6 17 18 30 30 26 24 40 55 30 31 36 45 53 62 67 58 57 67 79 73 71 68 65 54 51 44 39 31 25 18 13 12 11 7 4 3 1 6
7 11 6 7 6 7 9 19 17 20 19 25 34 34 34 42 58 73 65 64 68 74 72 64 73 73 72 71 64 60 50 43 38 32 24 15 11 9 10 6 4 1 3 8
0 7 4 7 11 21 28 5 9 11 42 25 32 41 46 57 55 60 47 58 65 58 59 51 62 73 74 68 62 54 46 40 34 27 22 19 13 12 9 5 2 5 6 9
10 7 5 3 8 18 14 17 40 18 43 27 48 44 52 55 21 26 27 35 42 44 36 43 61 72 69 59 52 46 42 38 32 27 22 14 16 14 10 4 2 5 6 10
7 9 27 24 21 14 15 21 16 12 41 14 33 33 39 9 27 32 35 35 33 29 31 46 56 56 49 45 45 45 41 36 31 26 20 22 18 12 7 3 2 3 8 12
17 17 11 11 13 34 24 20 28 34 63 64 68 74 53 56 48 45 46 40 32 29 35 42 43 41 39 40 42 40 37 32 28 23 25 20 15 10 4 2 2 7 13 15
7 14 10 19 14 15 18 20 33 43 53 57 60 56 59 50 51 49 49 43 35 36 39 42 41 40 42 42 40 37 34 30 29 29 26 20 13 8 5 1 5 10 13 15
8 21 15 14 33 47 61 74 52 55 66 76 79 83 71 62 56 52 49 44 41 38 37 37 38 41 42 42 38 33 31 30 31 26 21 16 11 7 5 4 7 11 14 15
17 9 12 17 34 49 70 74 61 65 62 64 67 69 70 59 52 51 50 47 44 39 37 38 41 45 43 42 39 36 35 33 27 23 18 14 11 8 5 6 9 10 12 16
29 26 13 23 48 34 56 47 35 39 47 53 58 60 58 52 48 50 48 46 42 37 38 44 46 44 43 41 37 36 33 31 25 20 16 14 12 9 6 6 6 9 13 15
Wind_Direction_850mb
192 202 189 192 219 252 344 220 234 184 114 20 266 274 273 266 269 266 261 259 264 266 271 229 243 261 268 264 261 263 265 265 265 267 267 279 273 262 264 235 246 250 254 256
167 230 215 207 221 235 257 288 250 128 160 167 265 271 272 260 248 245 250 257 258 257 228 219 240 271 278 277 277 275 275 274 273 257 227 208 209 222 227 232 247 257 260 261
197 22 202 211 145 178 246 241 271 279 282 247 270 273 254 242 250 239 259 252 225 171 130 212 259 265 279 302 301 300 295 295 291 259 215 207 216 226 237 245 246 257 264 260
230 210 193 151 197 185 222 214 232 302 313 243 27 293 315 217 205 177 213 168 133 159 178 194 210 269 294 300 307 323 331 342 317 176 123 176 200 218 227 241 246 255 260 268
208 176 166 185 200 177 213 130 181 209 246 334 220 235 268 189 238 205 159 137 134 136 160 184 211 272 336 313 314 354 7 32 80 128 170 185 192 208 217 223 229 244 268 287
118 41 175 203 143 173 124 134 121 129 40 274 209 193 251 174 191 297 127 139 154 161 170 181 145 257 290 289 292 301 311 41 91 113 138 158 167 175 188 202 232 264 292 317
131 176 107 308 124 52 186 177 138 191 256 228 147 197 244 304 136 148 174 147 161 171 160 189 237 255 273 260 267 284 306 12 79 110 124 136 139 131 114 100 20 330 321 323
168 181 176 180 210 179 190 205 164 233 196 4 70 236 259 359 5 76 116 151 163 162 204 235 235 257 263 268 284 291 284 261 169 115 104 94 81 63 42 9 349 338 331 327
168 162 140 175 205 155 173 220 299 21 76 67 231 265 290 208 222 128 138 150 162 189 223 222 225 241 253 254 254 252 246 235 215 191 141 110 85 49 10 350 340 331 327 322
224 113 338 70 25 299 222 348 76 353 172 243 252 250 246 276 194 168 173 164 170 202 219 228 236 240 250 251 247 244 242 235 225 212 200 199 229 355 342 334 330 330 329 327
188 117 166 130 208 188 181 227 222 170 184 204 308 256 28 36 72 176 184 152 186 215 219 233 241 254 258 252 248 247 245 239 233 228 226 238 278 314 322 326 326 323 320 319
201 200 158 193 339 225 220 202 214 172 206 228 222 248 304 101 98 76 84 150 195 225 238 251 255 266 260 255 249 245 241 238 236 236 240 249 259 274 310 315 312 308 305 303
187 193 132 152 348 302 208 214 230 250 281 240 229 242 227 79 107 128 141 226 237 241 244 248 252 261 256 253 246 241 240 236 236 239 243 254 277 298 305 307 304 299 297 297
168 164 189 174 130 125 195 216 215 227 240 261 247 264 271 291 216 279 255 253 232 256 256 253 252 254 250 250 248 242 238 235 235 235 238 252 276 290 297 298 291 286 280 278
169 180 229 267 174 230 248 240 225 234 251 255 277 272 274 290 292 298 295 297 268 249 247 255 250 246 246 248 245 239 236 233 232 232 234 243 256 277 288 282 280 272 268 264
208 172 180 251 302 307 261 249 261 273 273 273 275 268 278 279 286 289 280 274 273 277 258 265 250 245 244 245 242 236 233 230 231 234 237 240 252 261 271 277 276 265 282 334
172 124 91 247 193 319 289 196 229 241 246 257 262 269 272 278 278 268 275 281 283 285 277 262 258 246 241 239 238 232 231 229 232 234 232 229 242 265 262 250 249 246 4 8
194 145 124 192 71 257 238 180 198 215 232 237 261 276 270 265 271 273 274 274 275 279 279 272 255 238 233 233 230 229 225 226 226 224 225 228 236 243 231 213 243 317 24 352
331 134 167 157 200 275 274 187 232 201 265 241 256 266 276 281 288 281 287 286 285 280 279 273 245 232 228 227 229 223 220 219 218 219 224 222 220 222 211 206 285 336 1 348
218 212 170 137 191 233 317 176 221 217 263 210 251 265 271 277 276 282 279 294 298 300 282 250 228 225 222 223 226 218 212 209 211 221 217 194 202 198 196 189 288 324 348 356
160 198 220 226 242 258 216 145 171 191 259 278 275 280 292 256 267 283 289 291 286 275 237 216 212 215 217 221 215 208 205 207 207 199 179 189 183 175 186 196 304 321 344 352
168 170 204 207 238 261 190 188 196 237 261 270 275 280 275 275 274 277 278 277 267 244 224 216 216 216 216 212 205 202 202 197 188 174 178 173 174 177 181 169 269 338 352 351
231 192 188 186 211 250 209 201 232 250 261 270 278 276 281 279 272 272 270 265 257 244 235 229 225 218 205 198 195 193 186 177 172 177 172 173 167 159 174 249 334 335 334 345
265 214 223 245 263 270 278 276 270 278 282 281 282 284 281 276 277 269 259 253 247 239 234 226 214 201 193 190 185 185 180 172 174 169 168 169 167 172 208 281 321 334 341 343
224 174 226 256 262 269 270 269 274 276 275 277 277 277 277 275 267 262 256 247 238 231 220 206 193 190 188 180 182 177 173 171 171 173 172 174 181 205 243 300 317 321 330 343
223 228 216 240 247 233 256 263 269 283 284 279 278 279 274 266 260 252 244 237 232 224 204 188 184 185 185 175 176 173 170 171 178 178 179 189 204 220 254 283 303 324 333 338